Tracking 29606 objects as of 19-Sep-2024
HD Live streaming from Space Station
objects crossing your sky now

STARLINK-32223

Track STARLINK-32223 now!
10-day predictions
STARLINK-32223 is classified as:


NORAD ID: 60373
Int'l Code: 2024-138U
Perigee: 453.7 km
Apogee: 455.5 km
Inclination: 53.2 °
Period: 93.5 minutes
Semi major axis: 6825 km
RCS: Unknown
Launch date: August 4, 2024
Source: United States (US)
Launch site: AIR FORCE WESTERN TEST RANGE (AFWTR)
Your satellite tracking list
Your tracking list is empty




NASA's NSSDC Master Catalog

Two Line Element Set (TLE):
1 60373U 24138U   24262.58334491  .00082479  00000-0  20542-2 0  9995
2 60373  53.1575 291.3210 0001334  46.9012  70.6540 15.39553506  6019
Source of the keplerian elements: AFSPC